Location: D�derode
(51.8092°N, 10.1065°E)
Time: 20:29:54
(UTC+00:00)

Cosmos 1633 Rocket - Pass Details

Date: 01 December 2020
Orbit: 607 x 624 km, 82.5° (Epoch: 24 January)

Event Time Altitude Azimuth Distance (km) Brightness Sun altitude
Rises 16:22:40 0° 350° (N) 2,901 6.4 -10.3°
Reaches altitude 10° 16:24:55 10° 352° (N) 1,988 5.5 -10.6°
Maximum altitude 16:29:19 75° 78° (ENE) 640 3.0 -11.3°
Drops below altitude 10° 16:33:40 10° 165° (SSE) 1,962 5.7 -11.9°
Sets 16:35:52 0° 167° (SSE) 2,860 6.6 -12.2°
